Orbital elements of SL-19 DEB
| Launched | 1 November 2009 |
| Flight ended | – |
| Launch site | Plesetsk Missile and Space Complex, Russia |
| Owner | Commonwealth of Independent States (former USSR) |
| NORAD ID | 36038 |
| Date fetched |
Epoch osculation |
Inc. [°] |
Ecc. | RA asc node [hr] |
Arg Peri. [°] |
Mean anom [°] |
Mean motion [rev/day] |
Abs. mag |
| Date fetched |
Epoch osculation |
Inc. [°] |
Ecc. | RA asc node [hr] |
Arg Peri. [°] |
Mean anom [°] |
Mean motion [rev/day] |
Abs. mag |
| 2026 May 09 17:57 | 2026 May 05 11:51:32 | 98.1824 | 0.00092 | 20.6434 | 346.6978 | 34.5337 | 14.60262 | 9.243 |
| 2026 May 08 17:57 | 2026 May 05 11:51:32 | 98.1824 | 0.00092 | 20.6434 | 346.6978 | 34.5337 | 14.60262 | 9.243 |
| 2026 May 07 17:58 | 2026 May 05 11:51:32 | 98.1824 | 0.00092 | 20.6434 | 346.6978 | 34.5337 | 14.60262 | 9.243 |
| 2026 May 06 17:57 | 2026 May 05 11:51:32 | 98.1824 | 0.00092 | 20.6434 | 346.6978 | 34.5337 | 14.60262 | 9.243 |
| 2026 May 05 17:57 | 2026 May 05 11:51:32 | 98.1824 | 0.00092 | 20.6434 | 346.6978 | 34.5337 | 14.60262 | 9.243 |
| 2026 May 04 17:57 | 2026 Apr 30 11:49:56 | 98.1823 | 0.00096 | 20.3142 | 2.5069 | 34.5337 | 14.60262 | 9.243 |
| 2026 May 03 17:57 | 2026 Apr 30 11:49:56 | 98.1823 | 0.00096 | 20.3142 | 2.5069 | 34.5337 | 14.60262 | 9.243 |
| 2026 May 02 17:57 | 2026 Apr 30 11:49:56 | 98.1823 | 0.00096 | 20.3142 | 2.5069 | 34.5337 | 14.60262 | 9.243 |
| 2026 May 01 17:56 | 2026 Apr 30 11:49:56 | 98.1823 | 0.00096 | 20.3142 | 2.5069 | 34.5337 | 14.60262 | 9.243 |
| 2026 Apr 30 17:56 | 2026 Apr 30 11:49:56 | 98.1823 | 0.00096 | 20.3142 | 2.5069 | 34.5337 | 14.60262 | 9.243 |
| 2026 Apr 29 17:57 | 2026 Apr 24 11:16:23 | 98.1825 | 0.00100 | 19.9178 | 20.9587 | 34.5337 | 14.60262 | 9.243 |
| 2026 Apr 28 17:56 | 2026 Apr 24 11:16:23 | 98.1825 | 0.00100 | 19.9178 | 20.9587 | 34.5337 | 14.60262 | 9.243 |
| 2026 Apr 27 17:58 | 2026 Apr 24 11:16:23 | 98.1825 | 0.00100 | 19.9178 | 20.9587 | 34.5337 | 14.60262 | 9.243 |
| 2026 Apr 26 17:58 | 2026 Apr 24 11:16:23 | 98.1825 | 0.00100 | 19.9178 | 20.9587 | 34.5337 | 14.60262 | 9.243 |
| 2026 Apr 25 17:58 | 2026 Apr 24 11:16:23 | 98.1825 | 0.00100 | 19.9178 | 20.9587 | 34.5337 | 14.60262 | 9.243 |
| 2026 Apr 24 17:59 | 2026 Apr 24 11:16:23 | 98.1825 | 0.00100 | 19.9178 | 20.9587 | 34.5337 | 14.60262 | 9.243 |
| 2026 Apr 23 17:57 | 2026 Apr 19 06:47:56 | 98.1824 | 0.00103 | 19.5764 | 36.1582 | 34.5337 | 14.60262 | 9.243 |
| 2026 Apr 22 17:57 | 2026 Apr 19 06:47:56 | 98.1824 | 0.00103 | 19.5764 | 36.1582 | 34.5337 | 14.60262 | 9.243 |
| 2026 Apr 21 17:57 | 2026 Apr 19 06:47:56 | 98.1824 | 0.00103 | 19.5764 | 36.1582 | 34.5337 | 14.60262 | 9.243 |
| 2026 Apr 20 17:57 | 2026 Apr 19 06:47:56 | 98.1824 | 0.00103 | 19.5764 | 36.1582 | 34.5337 | 14.60262 | 9.243 |
| 2026 Apr 19 17:58 | 2026 Apr 19 06:47:56 | 98.1824 | 0.00103 | 19.5764 | 36.1582 | 34.5337 | 14.60262 | 9.243 |
| 2026 Apr 18 17:56 | 2026 Apr 13 06:04:44 | 98.1824 | 0.00106 | 19.1796 | 53.2845 | 34.5337 | 14.60262 | 9.243 |
| 2026 Apr 16 17:57 | 2026 Apr 13 06:04:44 | 98.1824 | 0.00106 | 19.1796 | 53.2845 | 34.5337 | 14.60262 | 9.243 |
| 2026 Apr 14 17:57 | 2026 Apr 13 06:04:44 | 98.1824 | 0.00106 | 19.1796 | 53.2845 | 34.5337 | 14.60262 | 9.243 |
| 2026 Apr 13 17:57 | 2026 Apr 13 06:04:44 | 98.1824 | 0.00106 | 19.1796 | 53.2845 | 34.5337 | 14.60262 | 9.243 |
| 2026 Apr 12 17:57 | 2026 Apr 08 12:05:20 | 98.1825 | 0.00108 | 18.8670 | 66.5614 | 34.5337 | 14.60262 | 9.243 |